Location: 相模原市立博物館
(35.5593°N, 139.3931°E)
Time: 12:52:26
(UTC+09:00)

Envisat - Pass Details

Date: 27 October 2021
Orbit: 764 x 766 km, 98.2° (Epoch: 30 November)

Event Time Altitude Azimuth Distance (km) Brightness Sun altitude
Rises 04:47:20 0° 11° (NNE) 3,236 6.3 -15.2°
Reaches altitude 10° 04:49:39 10° 12° (NNE) 2,306 5.6 -14.8°
Maximum altitude 04:54:44 87° 285° (WNW) 770 2.9 -13.7°
Drops below altitude 10° 04:59:48 10° 195° (SSW) 2,290 5.4 -12.7°
Sets 05:02:05 0° 195° (SSW) 3,212 6.1 -12.2°
